Taylorville, IL

5:50 AM CST on December 05, 2016 (GMT -0600)
Taylorville Municipal

Weather History for KTAZ - April, 2014

Change the Weather History Date:

Sunday, April 6, 2014

  Actual Average (KSPI) Record (KSPI)
Temperature  
Mean Temperature 44 °F 50 °F  
Max Temperature 55 °F 61 °F 85 °F (1967)
Min Temperature 32 °F 39 °F 19 °F (1982)
Degree Days  
Heating Degree Days 22 15  
Month to date heating degree days 97  
Since 1 July heating degree days 5079  
Cooling Degree Days 0 0  
Month to date cooling degree days 0  
Year to date cooling degree days 2  
Moisture  
Dew Point 33 °F    
Average Humidity 69    
Maximum Humidity 100    
Minimum Humidity 44    
Precipitation  
Precipitation 0.00 in 0.10 in 2.25 in (1926)
Month to date precipitation 0.61  
Year to date precipitation 6.87  
Snow  
Snow 0.00 in 0.00 in 1.00 in (1977)
Month to date snowfall 0.1  
Since 1 July snowfall 20.7  
Snow Depth -    
Sea Level Pressure  
Sea Level Pressure 30.04 in    
Wind  
Wind Speed 3 mph (ESE)    
Max Wind Speed 13 mph    
Max Gust Speed 17 mph    
Visibility 9 miles    
Events      
T = Trace of Precipitation, MM = Missing Value Source: NWS Daily Summary

Daily Weather History Graph

Daily Weather History Graph

Search for Another Location

Airport or City:

Trip Planner

Search our weather history database for the weather conditions in past years. The results will help you decide how hot, cold, wet, or windy it might be!

Date:

Astronomy

Apr. 06, 2014 Rise Set
Actual Time 6:33 AM CDT 7:26 PM CDT
Civil Twilight 6:06 AM CDT 7:53 PM CDT
Nautical Twilight 5:34 AM CDT 8:26 PM CDT
Astronomical Twilight 5:00 AM CDT 8:59 PM CDT
Moon 11:35 AM CDT (4/6) 1:21 AM CDT (4/6)
Length of Visible Light 13h 47m
Length of Day
12h 52m
Waxing Crescent, 44% of the Moon is Illuminated
Apr 6
Waxing Crescent
Apr 7
First Quarter
Apr 15
Full
Apr 22
Last Quarter
Apr 29
New

Hourly Weather History & Observations

Time (CDT) Temp. Windchill Dew Point Humidity Pressure Visibility Wind Dir Wind Speed Gust Speed Precip Events Conditions
12:15 AM 37.4 °F - 32.0 °F 81% 30.15 in 10.0 mi Calm Calm - N/A   Clear
12:35 AM 35.6 °F 32.8 °F 32.0 °F 87% 30.14 in 10.0 mi ESE 3.5 mph - N/A   Clear
12:55 AM 35.6 °F 31.7 °F 32.0 °F 87% 30.14 in 10.0 mi ESE 4.6 mph - N/A   Clear
1:15 AM 35.6 °F 32.8 °F 32.0 °F 87% 30.14 in 10.0 mi ESE 3.5 mph - N/A   Clear
1:35 AM 35.6 °F 32.8 °F 32.0 °F 87% 30.13 in 10.0 mi ESE 3.5 mph - N/A   Clear
1:55 AM 33.8 °F 30.8 °F 32.0 °F 93% 30.13 in 10.0 mi SE 3.5 mph - N/A   Clear
2:15 AM 33.8 °F - 32.0 °F 93% 30.13 in 10.0 mi Calm Calm - N/A   Clear
2:35 AM 33.8 °F - 32.0 °F 93% 30.13 in 10.0 mi Calm Calm - N/A   Clear
2:55 AM 33.8 °F - 32.0 °F 93% 30.12 in 10.0 mi Calm Calm - N/A   Clear
3:15 AM 33.8 °F - 32.0 °F 93% 30.12 in 7.0 mi Calm Calm - N/A   Clear
3:35 AM 32.0 °F - 32.0 °F 100% 30.13 in 10.0 mi Calm Calm - N/A   Clear
3:55 AM 33.8 °F - 32.0 °F 93% 30.12 in 7.0 mi Calm Calm - N/A   Clear
4:15 AM 33.8 °F - 32.0 °F 93% 30.12 in 7.0 mi Calm Calm - N/A   Clear
4:35 AM 32.0 °F - 32.0 °F 100% 30.13 in 10.0 mi Calm Calm - N/A   Clear
4:55 AM 32.0 °F - 32.0 °F 100% 30.13 in 7.0 mi Calm Calm - N/A   Clear
5:15 AM 32.0 °F - 32.0 °F 100% 30.14 in 7.0 mi Calm Calm - N/A   Clear
5:35 AM 32.0 °F - 32.0 °F 100% 30.14 in 10.0 mi Calm Calm - N/A   Clear
5:55 AM 32.0 °F - 32.0 °F 100% 30.14 in 7.0 mi Calm Calm - N/A   Clear
6:15 AM 32.0 °F - 32.0 °F 100% 30.15 in 10.0 mi Calm Calm - N/A   Clear
6:35 AM 32.0 °F - 32.0 °F 100% 30.15 in 7.0 mi Calm Calm - N/A   Clear
6:55 AM 32.0 °F - 32.0 °F 100% 30.14 in 7.0 mi Calm Calm - N/A   Clear
7:15 AM 33.8 °F - 32.0 °F 93% 30.14 in 7.0 mi Calm Calm - N/A   Clear
7:35 AM 33.8 °F - 32.0 °F 93% 30.14 in 7.0 mi Calm Calm - N/A   Clear
7:55 AM 33.8 °F - 33.8 °F 100% 30.13 in 7.0 mi Calm Calm - N/A   Clear
8:15 AM 37.4 °F - 33.8 °F 87% 30.13 in 5.0 mi Calm Calm - N/A   Clear
8:35 AM 39.2 °F 35.9 °F 33.8 °F 81% 30.13 in 7.0 mi ESE 4.6 mph - N/A   Clear
8:55 AM 39.2 °F 35.9 °F 33.8 °F 81% 30.12 in 10.0 mi East 4.6 mph - N/A   Clear
9:15 AM 41.0 °F 39.0 °F 33.8 °F 76% 30.11 in 10.0 mi East 3.5 mph - N/A   Clear
9:35 AM 42.8 °F - 33.8 °F 70% 30.11 in 10.0 mi Calm Calm - N/A   Clear
9:55 AM 44.6 °F - 33.8 °F 66% 30.11 in 10.0 mi Calm Calm - N/A   Clear
10:15 AM 44.6 °F 43.1 °F 33.8 °F 66% 30.10 in 10.0 mi ESE 3.5 mph - N/A   Clear
10:35 AM 44.6 °F 42.2 °F 33.8 °F 66% 30.10 in 10.0 mi SE 4.6 mph - N/A   Clear
10:55 AM 46.4 °F 44.3 °F 35.6 °F 66% 30.10 in 10.0 mi ESE 4.6 mph - N/A   Clear
11:15 AM 50.0 °F - 35.6 °F 58% 30.09 in 10.0 mi ESE 8.1 mph - N/A   Clear
11:35 AM 50.0 °F - 33.8 °F 54% 30.09 in 10.0 mi SE 9.2 mph - N/A   Clear
11:55 AM 51.8 °F - 33.8 °F 50% 30.07 in 10.0 mi SE 10.4 mph - N/A   Clear
12:15 PM 51.8 °F - 33.8 °F 50% 30.06 in 10.0 mi East 9.2 mph - N/A   Clear
12:35 PM 51.8 °F - 33.8 °F 50% 30.06 in 10.0 mi East 9.2 mph - N/A   Clear
12:55 PM 51.8 °F - 33.8 °F 50% 30.04 in 10.0 mi East 10.4 mph - N/A   Clear
1:15 PM 51.8 °F - 32.0 °F 47% 30.03 in 10.0 mi SE 6.9 mph - N/A   Clear
1:35 PM 53.6 °F - 33.8 °F 47% 30.01 in 10.0 mi NE 6.9 mph - N/A   Clear
1:55 PM 53.6 °F - 33.8 °F 47% 29.99 in 10.0 mi ESE 12.7 mph - N/A   Clear
2:15 PM 53.6 °F - 33.8 °F 47% 30.00 in 10.0 mi East 10.4 mph 16.1 mph N/A   Clear
2:35 PM 53.6 °F - 33.8 °F 47% 30.00 in 10.0 mi SE 5.8 mph 16.1 mph N/A   Clear
2:55 PM 55.4 °F - 33.8 °F 44% 30.00 in 10.0 mi ESE 9.2 mph 17.3 mph N/A   Clear
3:15 PM 55.4 °F - 33.8 °F 44% 29.99 in 10.0 mi SE 10.4 mph 17.3 mph N/A   Clear
3:35 PM 55.4 °F - 35.6 °F 47% 29.97 in 10.0 mi ESE 11.5 mph 17.3 mph N/A   Clear
3:55 PM 55.4 °F - 35.6 °F 47% 29.96 in 10.0 mi SE 9.2 mph 17.3 mph N/A   Clear
4:15 PM 55.4 °F - 33.8 °F 44% 29.95 in 10.0 mi East 9.2 mph - N/A   Clear
4:35 PM 55.4 °F - 33.8 °F 44% 29.96 in 10.0 mi ESE 10.4 mph - N/A   Clear
4:55 PM 55.4 °F - 33.8 °F 44% 29.96 in 10.0 mi East 6.9 mph - N/A   Clear
5:15 PM 55.4 °F - 33.8 °F 44% 29.95 in 10.0 mi East 9.2 mph - N/A   Clear
5:35 PM 55.4 °F - 33.8 °F 44% 29.94 in 10.0 mi East 8.1 mph - N/A   Clear
5:55 PM 53.6 °F - 33.8 °F 47% 29.92 in 10.0 mi East 5.8 mph - N/A   Clear
6:15 PM 53.6 °F - 33.8 °F 47% 29.92 in 10.0 mi East 8.1 mph - N/A   Clear
6:35 PM 53.6 °F - 33.8 °F 47% 29.92 in 10.0 mi ESE 8.1 mph - N/A   Clear
6:55 PM 51.8 °F - 33.8 °F 50% 29.93 in 10.0 mi ESE 4.6 mph - N/A   Clear
7:15 PM 51.8 °F - 33.8 °F 50% 29.93 in 10.0 mi East 5.8 mph - N/A   Clear
7:35 PM 50.0 °F - 33.8 °F 54% 29.94 in 10.0 mi ESE 3.5 mph - N/A   Clear
7:55 PM 50.0 °F - 35.6 °F 58% 29.95 in 10.0 mi SE 4.6 mph - N/A   Clear
8:15 PM 50.0 °F - 35.6 °F 58% 29.95 in 10.0 mi ESE 3.5 mph - N/A   Clear
8:35 PM 50.0 °F - 35.6 °F 58% 29.94 in 10.0 mi East 4.6 mph - N/A   Clear
8:55 PM 48.2 °F - 33.8 °F 58% 29.93 in 10.0 mi East 4.6 mph - N/A   Clear
9:15 PM 46.4 °F 44.3 °F 33.8 °F 62% 29.93 in 10.0 mi East 4.6 mph - N/A   Clear
9:35 PM 46.4 °F 45.2 °F 33.8 °F 62% 29.93 in 10.0 mi East 3.5 mph - N/A   Clear
9:55 PM 46.4 °F 44.3 °F 35.6 °F 66% 29.93 in 10.0 mi East 4.6 mph - N/A   Clear
10:15 PM 46.4 °F 45.2 °F 33.8 °F 62% 29.92 in 10.0 mi East 3.5 mph - N/A   Clear
10:35 PM 44.6 °F 43.1 °F 33.8 °F 66% 29.92 in 10.0 mi East 3.5 mph - N/A   Clear
10:55 PM 44.6 °F 43.1 °F 33.8 °F 66% 29.91 in 10.0 mi ESE 3.5 mph - N/A   Clear
11:15 PM 44.6 °F 43.1 °F 33.8 °F 66% 29.91 in 10.0 mi ESE 3.5 mph - N/A   Clear
11:35 PM 44.6 °F 43.1 °F 33.8 °F 66% 29.90 in 10.0 mi East 3.5 mph - N/A   Clear
11:55 PM 42.8 °F 41.1 °F 33.8 °F 70% 29.89 in 10.0 mi East 3.5 mph - N/A   Clear